Weather History for PAFA - May, 2015

Change the Weather History Date:

Tuesday, May 19, 2015

  Actual Average Record
Temperature  
Mean Temperature 59 °F 51 °F  
Max Temperature 74 °F 62 °F 77 °F (2002)
Min Temperature 43 °F 39 °F 20 °F (1918)
Degree Days  
Heating Degree Days 6 14  
Month to date heating degree days 250 343  
Since 1 July heating degree days 12085 13367  
Cooling Degree Days 0 0  
Month to date cooling degree days 0 0  
Year to date cooling degree days 0 0  
Growing Degree Days 8 (Base 50)    
Moisture  
Dew Point 37 °F    
Average Humidity 44    
Maximum Humidity 74    
Minimum Humidity 13    
Precipitation  
Precipitation 0.00 in 0.02 in 0.72 in (1959)
Month to date precipitation 0.17 0.33  
Year to date precipitation 1.45 1.89  
Snow  
Snow 0.00 in 0.00 in 0.10 in (1966)
Month to date snowfall 0.0 0.8  
Since 1 July snowfall 43.8 64.9  
Snow Depth 0.00 in    
Sea Level Pressure  
Sea Level Pressure 30.02 in    
Wind  
Wind Speed 3 mph (SW)    
Max Wind Speed 10 mph    
Max Gust Speed -    
Visibility 10 miles    
Events      
T = Trace of Precipitation, MM = Missing Value Source: NWS Daily Summary

Daily Weather History Graph

Daily Weather History Graph

Search for Another Location

Airport or City:

Trip Planner

Search our weather history database for the weather conditions in past years. The results will help you decide how hot, cold, wet, or windy it might be!

Date:

Astronomy

May. 19, 2015 Rise Set
Actual Time 4:15 AM AKDT 11:23 PM AKDT
Civil Twilight 2:20 AM AKDT 1:15 AM AKDT
Nautical Twilight Sun does not set Sun does not set
Astronomical Twilight Sun does not set Sun does not set
Moon 6:13 AM AKDT (5/19) No Moon Set
Length of Visible Light 22h 55m
Length of Day
19h 07m
Waxing Crescent, 4% of the Moon is Illuminated
May 19
Waxing Crescent
May 25
First Quarter
Jun 2
Full
Jun 9
Last Quarter
Jun 16
New

Hourly Weather History & Observations

Time (AKDT) Temp. Windchill Dew Point Humidity Pressure Visibility Wind Dir Wind Speed Gust Speed Precip Events Conditions
12:53 AM 50.0 °F - 42.1 °F 74% 29.98 in 10.0 mi Calm Calm - N/A   Partly Cloudy
1:53 AM 50.0 °F - 42.1 °F 74% 29.99 in 10.0 mi SW 3.5 mph - N/A   Partly Cloudy
2:53 AM 48.9 °F - 36.0 °F 61% 30.00 in 10.0 mi Calm Calm - N/A   Partly Cloudy
3:53 AM 48.9 °F - 35.1 °F 59% 30.01 in 10.0 mi Variable 3.5 mph - N/A   Partly Cloudy
4:53 AM 44.1 °F 42.5 °F 34.0 °F 68% 30.03 in 10.0 mi East 3.5 mph - N/A   Partly Cloudy
5:53 AM 46.9 °F - 37.0 °F 68% 30.04 in 10.0 mi East 5.8 mph - N/A   Partly Cloudy
6:53 AM 51.1 °F - 39.9 °F 66% 30.06 in 10.0 mi Calm Calm - N/A   Partly Cloudy
7:53 AM 53.1 °F - 39.9 °F 61% 30.07 in 10.0 mi Calm Calm - N/A   Partly Cloudy
8:53 AM 55.9 °F - 39.9 °F 55% 30.06 in 10.0 mi Calm Calm - N/A   Partly Cloudy
9:53 AM 60.1 °F - 41.0 °F 49% 30.07 in 10.0 mi SSE 4.6 mph - N/A   Partly Cloudy
10:53 AM 62.1 °F - 41.0 °F 46% 30.06 in 10.0 mi SW 3.5 mph - N/A   Partly Cloudy
11:53 AM 64.9 °F - 42.1 °F 43% 30.06 in 10.0 mi South 5.8 mph - N/A   Partly Cloudy
12:53 PM 66.9 °F - 41.0 °F 39% 30.04 in 10.0 mi Calm Calm - N/A   Scattered Clouds
1:53 PM 70.0 °F - 36.0 °F 29% 30.03 in 10.0 mi South 9.2 mph - N/A   Scattered Clouds
2:53 PM 72.0 °F - 34.0 °F 25% 30.01 in 10.0 mi SSW 5.8 mph - N/A   Scattered Clouds
3:53 PM 73.0 °F - 33.1 °F 23% 30.01 in 10.0 mi North 5.8 mph - N/A   Scattered Clouds
4:53 PM 72.0 °F - 34.0 °F 25% 30.00 in 10.0 mi WSW 6.9 mph - N/A   Mostly Cloudy
5:53 PM 70.0 °F - 37.9 °F 31% 30.00 in 10.0 mi West 10.4 mph - N/A   Mostly Cloudy
6:53 PM 70.0 °F - 37.0 °F 30% 30.00 in 10.0 mi West 6.9 mph - N/A   Mostly Cloudy
7:53 PM 71.1 °F - 37.9 °F 30% 30.00 in 10.0 mi West 9.2 mph - N/A   Mostly Cloudy
8:53 PM 69.1 °F - 37.0 °F 31% 30.00 in 10.0 mi West 10.4 mph - N/A   Mostly Cloudy
9:53 PM 66.9 °F - 39.0 °F 36% 30.01 in 10.0 mi WSW 5.8 mph - N/A   Mostly Cloudy
10:53 PM 63.0 °F - 30.9 °F 30% 30.01 in 10.0 mi WSW 3.5 mph - N/A   Mostly Cloudy
11:53 PM 53.1 °F - 34.0 °F 48% 30.02 in 10.0 mi Calm Calm - N/A   Mostly Cloudy